Weather History for EGDR - October, 2014

Change the Weather History Date:

Thursday, October 9, 2014

  Actual Average Record
Temperature  
Mean Temperature 56 °F -  
Max Temperature 59 °F 54 °F 62 °F (1997)
Min Temperature 54 °F 46 °F 42 °F (1998)
Degree Days  
Heating Degree Days 8    
Growing Degree Days 6 (Base 50)    
Moisture  
Dew Point 50 °F    
Average Humidity 74    
Maximum Humidity 88    
Minimum Humidity 62    
Precipitation  
Precipitation 0.00 in - - ()
Sea Level Pressure  
Sea Level Pressure 29.47 in    
Wind  
Wind Speed 21 mph ()    
Max Wind Speed 31 mph    
Max Gust Speed 52 mph    
Visibility 6.7 miles    
Events Rain , Thunderstorm    
Averages and records for this station are not official NWS values.
T = Trace of Precipitation, MM = Missing Value Source: Averaged Metar Reports

Daily Weather History Graph

Daily Weather History Graph

Search for Another Location

Airport or City:

Trip Planner

Search our weather history database for the weather conditions in past years. The results will help you decide how hot, cold, wet, or windy it might be!

Date:

Astronomy

Oct. 09, 2014 Rise Set
Actual Time 7:33 AM BST 6:42 PM BST
Civil Twilight 7:00 AM BST 7:14 PM BST
Nautical Twilight 6:23 AM BST 7:52 PM BST
Astronomical Twilight 5:45 AM BST 8:30 PM BST
Moon 7:20 PM BST (10/9) 8:38 AM BST (10/9)
Length of Visible Light 12h 14m
Length of Day
11h 09m
Full, 99% of the Moon is Illuminated
Oct 9
Full
Oct 15
Last Quarter
Oct 23
New
Oct 31
First Quarter
Nov 6
Full

Hourly Weather History & Observations

Time (BST) Temp. Dew Point Humidity Pressure Visibility Wind Dir Wind Speed Gust Speed Precip Events Conditions
12:00 AM 57 °F 48 °F 62% 29.32 in 9 mi SW 26.5 mph - -   Scattered Clouds
12:50 AM 57.2 °F 48.2 °F 72% 29.33 in 6.2 mi SW 26.5 mph 46.0 mph N/A   Scattered Clouds
1:00 AM 57 °F 47 °F 62% 29.33 in 9 mi SW 26.5 mph - - Rain Light Rain Showers
1:50 AM 55.4 °F 50.0 °F 82% 29.33 in 5.0 mi SW 26.5 mph 46.0 mph N/A Rain , Thunderstorm Thunderstorms and Rain
2:00 AM 56 °F 50 °F 74% 29.34 in 5 mi SW 26.5 mph - - Rain , Thunderstorm Thunderstorms and Rain
2:50 AM 57.2 °F 48.2 °F 72% 29.33 in 6.2 mi SW 31.1 mph 51.8 mph N/A   Mostly Cloudy
3:00 AM 57 °F 48 °F 64% 29.33 in 9 mi SW 31.1 mph - - Thunderstorm Light Thunderstorm
3:50 AM 57.2 °F 50.0 °F 77% 29.33 in 6.2 mi SW 28.8 mph 47.2 mph N/A   Haze
4:00 AM 57 °F 49 °F 67% 29.33 in 9 mi SW 28.8 mph - -   Haze
4:50 AM 57.2 °F 50.0 °F 77% 29.33 in 6.2 mi SW 25.3 mph 42.6 mph N/A   Mostly Cloudy
5:00 AM 56 °F 49 °F 71% 29.34 in 9 mi SW 25.3 mph - -   Mostly Cloudy
5:50 AM 57.2 °F 48.2 °F 72% 29.33 in 6.2 mi SW 29.9 mph 49.5 mph N/A Rain , Thunderstorm Thunderstorms and Rain
6:00 AM 56 °F 48 °F 67% 29.34 in 9 mi SW 29.9 mph - - Rain , Thunderstorm Thunderstorms and Rain
6:50 AM 55.4 °F 50.0 °F 82% 29.36 in 6.2 mi SW 26.5 mph 46.0 mph N/A   Partly Cloudy
7:00 AM 56 °F 49 °F 71% 29.37 in 9 mi SW 26.5 mph - - Thunderstorm Light Thunderstorm
7:50 AM 55.4 °F 48.2 °F 77% 29.39 in 5.0 mi SW 26.5 mph 43.7 mph N/A   Mostly Cloudy
8:00 AM 56 °F 48 °F 68% 29.39 in 5 mi SW 26.5 mph - - Rain Light Rain Showers
8:50 AM 55.4 °F 48.2 °F 77% 29.39 in 6.2 mi SW 25.3 mph 40.3 mph N/A   Partly Cloudy
9:00 AM 56 °F 49 °F 69% 29.40 in 7 mi SW 25.3 mph - -   Partly Cloudy
9:50 AM 55.4 °F 48.2 °F 77% 29.42 in 3.7 mi SW 27.6 mph 46.0 mph N/A Rain Light Rain Showers
10:00 AM 56 °F 48 °F 66% 29.44 in 4 mi SW 27.6 mph - - Rain Light Rain Showers
10:50 AM 55.4 °F 50.0 °F 82% 29.44 in 5.0 mi SW 19.6 mph 32.2 mph N/A   Mostly Cloudy
11:00 AM 55 °F 49 °F 74% 29.46 in 5 mi SW 19.6 mph - - Rain Light Rain Showers
11:26 AM 57.2 °F 50.0 °F 77% 29.44 in 3.7 mi SW 19.6 mph 35.7 mph N/A Rain Light Rain Showers
11:50 AM 55.4 °F 51.8 °F 88% 29.44 in 4.3 mi SW 19.6 mph 31.1 mph N/A Rain Light Rain Showers
12:00 PM 55 °F 52 °F 84% 29.46 in 4 mi SW 19.6 mph - - Rain Light Rain Showers
12:50 PM 55.4 °F 51.8 °F 88% 29.47 in 3.7 mi SW 20.7 mph 35.7 mph N/A   Mostly Cloudy
1:00 PM 56 °F 52 °F 80% 29.47 in 4 mi SW 20.7 mph - - Rain Light Rain Showers
1:50 PM 57.2 °F 53.6 °F 88% 29.47 in 5.0 mi SW 20.7 mph 32.2 mph N/A   Mostly Cloudy
2:00 PM 58 °F 53 °F 80% 29.49 in 5 mi SW 20.7 mph - -   Partly Cloudy
2:50 PM 59.0 °F 53.6 °F 82% 29.47 in 5.0 mi SW 19.6 mph 31.1 mph N/A   Mostly Cloudy
3:00 PM 59 °F 53 °F 76% 29.50 in 5 mi SW 19.6 mph - -   Partly Cloudy
3:50 PM 59.0 °F 53.6 °F 82% 29.50 in 6.2 mi SW 17.3 mph 32.2 mph N/A   Scattered Clouds
4:00 PM 60 °F 54 °F 74% 29.52 in 7 mi SW 17.3 mph - -   Partly Cloudy
4:50 PM 57.2 °F 50.0 °F 77% 29.53 in 6.2 mi West 16.1 mph - N/A   Partly Cloudy
5:00 PM 58 °F 50 °F 66% 29.54 in 9 mi West 16.1 mph - -   Partly Cloudy
5:50 PM 57.2 °F 50.0 °F 77% 29.56 in 6.2 mi West 12.7 mph 24.2 mph N/A   Scattered Clouds
6:00 PM 58 °F 50 °F 68% 29.57 in 9 mi West 12.7 mph - -   Mostly Cloudy
6:50 PM 55.4 °F 48.2 °F 77% 29.59 in 6.2 mi West 12.7 mph 24.2 mph N/A   Partly Cloudy
7:00 PM 56 °F 48 °F 67% 29.60 in 11 mi West 12.7 mph - -   Partly Cloudy
7:50 PM 55.4 °F 46.4 °F 72% 29.62 in 6.2 mi WSW 11.5 mph 23.0 mph N/A   Haze
8:00 PM 56 °F 47 °F 63% 29.64 in 11 mi WSW 11.5 mph - -   Haze
8:50 PM 55.4 °F 46.4 °F 72% 29.65 in 6.2 mi WSW 9.2 mph - N/A   Haze
9:00 PM 55 °F 46 °F 64% 29.66 in 11 mi WSW 9.2 mph - -   Haze
9:50 PM 55.4 °F 46.4 °F 72% 29.65 in 6.2 mi SW 13.8 mph - N/A   Haze
10:00 PM 56 °F 47 °F 64% 29.68 in 11 mi SW 13.8 mph - -   Haze
10:50 PM 55.4 °F 50.0 °F 82% 29.68 in 6.2 mi SW 12.7 mph - N/A   Haze
11:00 PM 56 °F 51 °F 77% 29.70 in 11 mi SW 12.7 mph - -   Haze
11:50 PM 55.4 °F 50.0 °F 82% 29.68 in 6.2 mi SW 13.8 mph - N/A   Partly Cloudy